Total_Precipitation_Accumulation
0.05 0.10 0.16 0.19 0.15 0.13 0.10 0.10 0.12 0.14 0.23 0.29 0.40 0.39 0.31 0.31 0.34 0.27 0.27 0.24 0.22 0.25 0.18 0.15 0.16 0.18 0.20 0.22 0.26 0.29 0.34 0.41 0.46 0.54 0.61 0.66 0.74 0.78 0.85 0.88 0.84 0.89 0.95 0.93
0.06 0.10 0.12 0.13 0.16 0.12 0.08 0.07 0.08 0.11 0.20 0.30 0.34 0.40 0.37 0.31 0.28 0.30 0.35 0.27 0.27 0.29 0.25 0.22 0.20 0.19 0.19 0.24 0.33 0.40 0.48 0.52 0.52 0.58 0.65 0.65 0.70 0.73 0.84 0.90 0.94 1.02 1.06 1.05
0.15 0.15 0.15 0.16 0.15 0.11 0.09 0.10 0.11 0.12 0.18 0.27 0.37 0.42 0.44 0.43 0.35 0.34 0.42 0.41 0.49 0.53 0.42 0.31 0.27 0.26 0.27 0.32 0.40 0.48 0.56 0.68 0.72 0.73 0.77 0.79 0.83 0.85 0.90 1.03 1.10 1.09 1.07 1.08
0.21 0.24 0.28 0.18 0.14 0.13 0.11 0.13 0.14 0.18 0.25 0.31 0.43 0.49 0.53 0.61 0.57 0.50 0.45 0.47 0.53 0.56 0.55 0.50 0.45 0.42 0.44 0.47 0.53 0.66 0.78 0.89 0.97 1.01 1.08 1.13 1.18 1.13 1.15 1.22 1.29 1.28 1.22 1.23
0.32 0.38 0.32 0.24 0.21 0.20 0.21 0.25 0.27 0.36 0.49 0.55 0.58 0.67 0.77 0.69 0.59 0.56 0.54 0.50 0.59 0.58 0.57 0.57 0.64 0.63 0.60 0.61 0.67 0.83 0.99 1.11 1.17 1.22 1.30 1.35 1.32 1.37 1.46 1.55 1.58 1.59 1.54 1.55
0.39 0.44 0.45 0.40 0.36 0.35 0.42 0.68 0.58 0.62 0.65 0.60 0.60 0.79 0.78 0.59 0.53 0.53 0.53 0.56 0.62 0.67 0.65 0.69 0.82 0.81 0.79 0.82 0.90 0.94 0.99 1.09 1.26 1.43 1.54 1.52 1.53 1.64 1.81 1.95 1.90 1.89 1.91 1.91
0.46 0.48 0.44 0.44 0.42 0.48 0.81 1.05 0.89 0.83 0.78 0.72 0.78 0.81 0.79 0.64 0.51 0.49 0.47 0.51 0.58 0.63 0.67 0.67 0.77 0.86 0.98 1.08 1.11 1.13 1.18 1.26 1.37 1.53 1.68 1.70 1.77 1.82 1.94 2.05 2.04 2.00 1.92 1.85
0.69 0.77 0.75 0.51 0.55 0.81 1.00 0.85 0.88 0.99 1.02 0.99 0.92 0.78 0.67 0.57 0.50 0.43 0.41 0.41 0.48 0.59 0.64 0.67 0.79 0.99 1.13 1.22 1.29 1.35 1.44 1.59 1.64 1.70 1.68 1.64 1.77 1.87 1.95 2.04 2.01 1.96 1.97 1.85
0.88 0.94 0.84 0.67 0.73 0.71 0.70 0.79 0.86 0.91 1.03 1.03 0.92 0.92 0.78 0.67 0.61 0.51 0.43 0.41 0.46 0.55 0.63 0.68 0.76 0.92 1.18 1.25 1.30 1.36 1.46 1.55 1.65 1.68 1.71 1.71 1.76 1.84 1.96 2.00 1.98 1.91 1.92 1.92
0.98 0.98 0.88 0.82 0.80 0.74 0.68 0.71 0.77 0.85 0.89 0.89 0.85 0.92 0.87 0.72 0.58 0.51 0.46 0.42 0.44 0.51 0.60 0.64 0.63 0.71 0.85 0.95 1.02 1.09 1.17 1.24 1.28 1.38 1.48 1.64 1.81 1.81 1.83 1.90 1.97 2.00 1.98 1.92
1.09 1.16 1.18 1.07 0.97 0.92 0.83 0.82 0.88 0.89 0.87 0.86 0.74 0.74 0.76 0.65 0.51 0.45 0.40 0.37 0.40 0.48 0.49 0.51 0.57 0.59 0.64 0.72 0.90 0.99 1.00 1.04 1.12 1.24 1.36 1.51 1.68 1.75 1.69 1.72 1.85 1.85 1.76 1.67
1.05 1.07 1.23 1.27 1.10 0.99 0.89 0.92 0.95 0.92 0.85 0.79 0.68 0.60 0.52 0.44 0.36 0.35 0.33 0.35 0.40 0.45 0.45 0.45 0.51 0.55 0.57 0.67 0.85 0.98 0.99 0.97 1.01 1.05 1.17 1.30 1.43 1.49 1.41 1.25 1.26 1.22 1.11 0.99
0.84 0.92 1.01 1.13 1.08 1.01 1.02 0.98 0.90 0.83 0.73 0.69 0.60 0.50 0.41 0.36 0.32 0.31 0.35 0.39 0.45 0.48 0.50 0.50 0.50 0.52 0.57 0.67 0.83 1.00 0.99 0.93 0.93 0.95 1.03 1.09 1.16 1.26 1.29 1.14 0.94 0.85 0.73 0.61
0.86 0.95 1.08 1.19 1.09 0.95 0.98 0.89 0.78 0.79 0.73 0.65 0.57 0.50 0.41 0.38 0.35 0.36 0.41 0.47 0.51 0.51 0.49 0.51 0.53 0.51 0.54 0.63 0.78 1.06 1.14 1.06 0.97 0.94 0.97 0.99 1.04 1.10 1.16 1.20 1.10 0.90 0.68 0.48
0.85 0.89 0.93 0.94 0.91 0.86 0.87 0.89 0.79 0.71 0.62 0.60 0.58 0.49 0.43 0.40 0.39 0.40 0.45 0.52 0.58 0.56 0.52 0.50 0.50 0.49 0.51 0.57 0.67 0.83 1.04 1.06 0.98 0.93 0.94 0.98 1.00 1.03 1.09 1.12 1.17 1.12 0.89 0.61
0.85 0.86 0.85 0.82 0.81 0.74 0.71 0.81 0.82 0.67 0.55 0.56 0.57 0.48 0.44 0.43 0.41 0.42 0.47 0.60 0.78 0.81 0.69 0.63 0.58 0.53 0.52 0.58 0.62 0.68 0.78 0.76 0.71 0.75 0.79 0.86 0.92 0.95 0.99 1.06 1.11 1.12 1.00 0.75
0.88 0.85 0.84 0.83 0.79 0.70 0.65 0.70 0.69 0.60 0.49 0.47 0.55 0.54 0.51 0.53 0.56 0.58 0.64 0.70 0.79 0.81 0.75 0.73 0.64 0.53 0.49 0.53 0.59 0.60 0.64 0.59 0.48 0.57 0.70 0.76 0.81 0.86 0.87 0.92 0.99 1.01 0.92 0.63
0.78 0.76 0.69 0.67 0.69 0.69 0.66 0.63 0.60 0.53 0.46 0.45 0.54 0.62 0.61 0.68 0.79 0.87 0.89 0.89 0.84 0.71 0.65 0.65 0.56 0.47 0.44 0.43 0.49 0.53 0.64 0.63 0.48 0.50 0.63 0.69 0.71 0.83 0.86 0.87 0.90 0.92 0.83 0.58
0.68 0.69 0.59 0.52 0.51 0.54 0.56 0.56 0.53 0.50 0.45 0.45 0.56 0.66 0.67 0.71 0.80 0.89 0.90 0.97 1.02 0.92 0.73 0.59 0.48 0.40 0.38 0.33 0.31 0.40 0.54 0.62 0.52 0.48 0.57 0.55 0.63 0.81 0.85 0.84 0.86 0.86 0.72 0.61
0.58 0.60 0.55 0.48 0.44 0.45 0.46 0.45 0.44 0.45 0.46 0.48 0.58 0.63 0.67 0.73 0.78 0.83 0.83 0.88 0.98 0.97 0.80 0.60 0.41 0.33 0.28 0.25 0.26 0.33 0.44 0.53 0.47 0.41 0.46 0.54 0.65 0.77 0.83 0.81 0.83 0.85 0.74 0.64
0.50 0.48 0.44 0.40 0.43 0.46 0.43 0.38 0.38 0.43 0.46 0.50 0.58 0.63 0.68 0.68 0.68 0.75 0.87 0.93 0.84 0.83 0.78 0.67 0.47 0.31 0.23 0.22 0.24 0.33 0.43 0.49 0.42 0.33 0.35 0.44 0.59 0.71 0.78 0.79 0.79 0.78 0.70 0.63
0.41 0.38 0.34 0.33 0.38 0.44 0.42 0.37 0.34 0.35 0.39 0.48 0.54 0.58 0.65 0.62 0.61 0.61 0.64 0.77 0.78 0.84 0.76 0.68 0.56 0.39 0.26 0.20 0.21 0.28 0.38 0.44 0.41 0.32 0.30 0.38 0.52 0.63 0.70 0.74 0.76 0.74 0.70 0.68
0.40 0.33 0.31 0.31 0.31 0.33 0.33 0.30 0.28 0.28 0.40 0.53 0.58 0.61 0.65 0.59 0.60 0.70 0.66 0.55 0.58 0.70 0.63 0.56 0.54 0.43 0.30 0.23 0.22 0.28 0.39 0.47 0.46 0.35 0.31 0.37 0.44 0.49 0.57 0.61 0.64 0.68 0.72 0.68
0.42 0.34 0.32 0.31 0.28 0.27 0.30 0.27 0.23 0.26 0.38 0.49 0.47 0.51 0.54 0.54 0.54 0.54 0.53 0.52 0.55 0.60 0.53 0.48 0.46 0.42 0.38 0.34 0.34 0.37 0.42 0.46 0.43 0.33 0.30 0.34 0.38 0.41 0.49 0.58 0.65 0.71 0.68 0.61
0.38 0.33 0.31 0.29 0.28 0.27 0.26 0.24 0.22 0.24 0.36 0.48 0.42 0.41 0.41 0.43 0.53 0.54 0.50 0.47 0.51 0.53 0.49 0.48 0.43 0.40 0.38 0.46 0.52 0.50 0.46 0.43 0.39 0.33 0.31 0.32 0.35 0.39 0.47 0.60 0.69 0.70 0.63 0.60
0.37 0.35 0.32 0.29 0.26 0.23 0.21 0.21 0.23 0.24 0.38 0.61 0.56 0.46 0.42 0.38 0.41 0.47 0.54 0.53 0.51 0.54 0.51 0.47 0.41 0.41 0.42 0.51 0.57 0.53 0.45 0.41 0.40 0.37 0.35 0.36 0.41 0.47 0.55 0.64 0.65 0.57 0.51 0.48
0.33 0.30 0.28 0.26 0.24 0.22 0.21 0.24 0.27 0.30 0.42 0.66 0.69 0.51 0.43 0.41 0.44 0.50 0.56 0.59 0.55 0.53 0.50 0.44 0.39 0.37 0.38 0.43 0.45 0.44 0.42 0.41 0.42 0.41 0.39 0.40 0.41 0.46 0.49 0.54 0.53 0.46 0.42 0.39